{"data":{"norad_id":63943,"epoch":"2026-09-20T09:28:49.253664Z","epoch_age_seconds":156157,"freshness":"FRESH","line1":"1 63943U 25098T   26263.39501451  .00004002  00000+0  14355-3 0  9992","line2":"2 63943  70.0002 141.2833 0001115 276.3674  83.7374 15.29589030 75771","mean_motion":15.2958903,"eccentricity":0.0001115,"inclination_deg":70.0002,"raan_deg":141.2833,"arg_perigee_deg":276.3674,"mean_anomaly_deg":83.7374,"bstar":0.00014355,"rev_number":7577,"period_min":94.14293458943,"perigee_km":476.27557067919,"apogee_km":477.804275133,"semimajor_km":6855.1769229061,"source":"CELESTRAK","updated_at":"2026-09-21T09:00:35.152360Z"}}